When you browse on this site, cookies collect data to enhance your experience and personalize the content and advertising you see.
Visit our Privacy Policy to learn more. By continuing to use the site, you agree to this use of cookies and data.
  • în România
  • Lista ţărilor
  • Pe 7 zile
  • Temperatura apei
  • Hartă satelitară
  • Meteo pe hartă
  • Widget-uri
  • user-avatar
    Intrare

    Meteo pe oră la Tatabanya

    Astăzi, 16 Ianuarie, Miercuri

    Timp Temperatura Precipitaţii Vânt Presiune Umiditate
    00:00 -2°C° 0 mm 6 m/s 738 mmHg 77%
    01:00 -2°C° 0 mm 6 m/s 738 mmHg 78%
    02:00 -2°C° 0 mm 6 m/s 738 mmHg 78%
    03:00 -1°C° 0 mm 6 m/s 738 mmHg 78%
    04:00 -1°C° 0 mm 6 m/s 738 mmHg 77%
    05:00 -1°C° 0 mm 6 m/s 738 mmHg 78%
    06:00 -1°C° 0 mm 6 m/s 738 mmHg 79%
    07:00 -1°C° 0 mm 6 m/s 738 mmHg 80%
    08:00 -1°C° 0 mm 6 m/s 738 mmHg 79%
    09:00 +1°C° 0 mm 6 m/s 739 mmHg 78%
    10:00 +1°C° 0 mm 6 m/s 739 mmHg 77%
    11:00 +2°C° 0 mm 5 m/s 739 mmHg 76%
    12:00 +3°C° 0 mm 4 m/s 739 mmHg 75%
    13:00 +4°C° 0 mm 4 m/s 739 mmHg 75%
    14:00 +3°C° 0 mm 3 m/s 739 mmHg 77%
    15:00 +2°C° 0 mm 3 m/s 739 mmHg 80%
    16:00 +2°C° 0 mm 2 m/s 739 mmHg 82%
    17:00 +2°C° 0 mm 2 m/s 739 mmHg 81%
    18:00 +2°C° 0 mm 1 m/s 738 mmHg 80%
    19:00 +2°C° 0 mm 1 m/s 738 mmHg 78%
    20:00 +2°C° 0 mm 1 m/s 738 mmHg 79%
    21:00 +1°C° 0 mm 2 m/s 738 mmHg 80%
    22:00 +1°C° 0 mm 2 m/s 738 mmHg 80%
    23:00 -1°C° 0 mm 2 m/s 738 mmHg 83%

    Mâine, 17 Ianuarie, Joi

    Timp Temperatura Precipitaţii Vânt Presiune Umiditate
    00:00 -1°C° 0 mm 2 m/s 738 mmHg 86%
    01:00 -1°C° 0 mm 2 m/s 737 mmHg 89%
    02:00 +1°C° 0 mm 2 m/s 737 mmHg 90%
    03:00 +1°C° 0 mm 2 m/s 737 mmHg 90%
    04:00 +1°C° 0 mm 2 m/s 737 mmHg 91%
    05:00 +1°C° 0 mm 2 m/s 737 mmHg 91%
    06:00 +1°C° 0 mm 2 m/s 737 mmHg 91%
    07:00 +1°C° 0 mm 2 m/s 737 mmHg 91%
    08:00 +2°C° 0 mm 2 m/s 737 mmHg 89%
    09:00 +2°C° 0 mm 3 m/s 737 mmHg 88%
    10:00 +3°C° 0 mm 3 m/s 738 mmHg 87%
    11:00 +4°C° 0 mm 3 m/s 737 mmHg 85%
    12:00 +5°C° 0 mm 3 m/s 737 mmHg 83%
    13:00 +7°C° 0 mm 3 m/s 737 mmHg 81%
    14:00 +7°C° 0 mm 3 m/s 736 mmHg 82%
    15:00 +5°C° 0 mm 3 m/s 736 mmHg 84%
    16:00 +4°C° 0 mm 3 m/s 736 mmHg 86%
    17:00 +4°C° 0.2 mm 4 m/s 736 mmHg 86%
    18:00 +4°C° 0.2 mm 4 m/s 736 mmHg 87%
    19:00 +4°C° 0.2 mm 4 m/s 736 mmHg 88%
    20:00 +4°C° 0.3 mm 4 m/s 737 mmHg 89%
    21:00 +4°C° 0.3 mm 3 m/s 737 mmHg 90%
    22:00 +3°C° 0.3 mm 3 m/s 737 mmHg 91%
    23:00 +3°C° 0.4 mm 3 m/s 737 mmHg 89%

    Poimâine, 18 Ianuarie, Vineri

    Timp Temperatura Precipitaţii Vânt Presiune Umiditate
    00:00 +3°C° 0.4 mm 3 m/s 737 mmHg 87%
    01:00 +2°C° 0.4 mm 3 m/s 737 mmHg 85%
    02:00 +2°C° 0.2 mm 3 m/s 738 mmHg 82%
    03:00 +2°C° 0.2 mm 3 m/s 738 mmHg 80%
    04:00 +2°C° 0.2 mm 3 m/s 738 mmHg 77%
    05:00 +1°C° 0.1 mm 4 m/s 739 mmHg 78%
    06:00 0°C° 0.1 mm 4 m/s 740 mmHg 80%
    07:00 0°C° 0.1 mm 4 m/s 741 mmHg 81%
    08:00 0°C° 0 mm 5 m/s 741 mmHg 77%
    09:00 0°C° 0 mm 5 m/s 742 mmHg 73%
    10:00 -1°C° 0 mm 6 m/s 742 mmHg 69%
    11:00 0°C° 0 mm 5 m/s 743 mmHg 67%
    12:00 0°C° 0 mm 5 m/s 743 mmHg 64%
    13:00 +1°C° 0 mm 5 m/s 743 mmHg 62%
    14:00 +1°C° 0 mm 3 m/s 743 mmHg 65%
    15:00 +2°C° 0 mm 2 m/s 743 mmHg 68%
    16:00 +2°C° 0 mm 1 m/s 743 mmHg 71%
    17:00 +2°C° 0 mm 1 m/s 744 mmHg 72%
    18:00 +1°C° 0 mm 1 m/s 744 mmHg 73%
    19:00 0°C° 0 mm 0 m/s 744 mmHg 74%
    20:00 0°C° 0 mm 0 m/s 745 mmHg 74%
    21:00 0°C° 0 mm 0 m/s 745 mmHg 74%
    22:00 0°C° 0 mm 0 m/s 745 mmHg 74%
    23:00 0°C° 0 mm 0 m/s 745 mmHg 74%

    19 Ianuarie, Sâmbătă

    Timp Temperatura Precipitaţii Vânt Presiune Umiditate
    00:00 0°C° 0 mm 1 m/s 745 mmHg 74%
    01:00 0°C° 0 mm 1 m/s 744 mmHg 73%
    02:00 0°C° 0 mm 1 m/s 744 mmHg 74%
    03:00 0°C° 0 mm 1 m/s 744 mmHg 75%
    04:00 0°C° 0 mm 1 m/s 744 mmHg 75%
    05:00 -2°C° 0 mm 2 m/s 744 mmHg 76%
    06:00 -2°C° 0 mm 2 m/s 744 mmHg 76%
    07:00 -2°C° 0 mm 2 m/s 744 mmHg 76%
    08:00 -2°C° 0.1 mm 2 m/s 744 mmHg 77%
    09:00 -2°C° 0.1 mm 2 m/s 744 mmHg 78%
    10:00 -1°C° 0.1 mm 2 m/s 744 mmHg 79%
    11:00 -1°C° 0.1 mm 2 m/s 744 mmHg 78%
    12:00 -1°C° 0.1 mm 2 m/s 743 mmHg 78%
    13:00 -1°C° 0.1 mm 2 m/s 743 mmHg 77%
    14:00 -1°C° 0.1 mm 2 m/s 743 mmHg 79%
    15:00 -1°C° 0.1 mm 2 m/s 742 mmHg 80%
    16:00 -1°C° 0.1 mm 2 m/s 742 mmHg 81%
    17:00 -2°C° 0.1 mm 2 m/s 742 mmHg 83%
    18:00 -2°C° 0.1 mm 2 m/s 742 mmHg 85%
    19:00 -2°C° 0.1 mm 2 m/s 742 mmHg 86%
    20:00 -2°C° 0.2 mm 2 m/s 742 mmHg 87%
    21:00 -2°C° 0.2 mm 2 m/s 742 mmHg 88%
    22:00 -2°C° 0.2 mm 2 m/s 742 mmHg 90%
    23:00 -3°C° 0.1 mm 2 m/s 742 mmHg 90%

    20 Ianuarie, Duminică

    Timp Temperatura Precipitaţii Vânt Presiune Umiditate
    00:00 -1°C° 0.1 mm 1 m/s 742 mmHg 91%
    01:00 -1°C° 0.1 mm 1 m/s 741 mmHg 92%
    02:00 -1°C° 0 mm 1 m/s 741 mmHg 93%
    03:00 -1°C° 0 mm 1 m/s 741 mmHg 93%
    04:00 -1°C° 0 mm 1 m/s 741 mmHg 94%
    05:00 -2°C° 0 mm 1 m/s 741 mmHg 93%
    06:00 -2°C° 0 mm 1 m/s 741 mmHg 92%
    07:00 -2°C° 0 mm 1 m/s 742 mmHg 92%
    08:00 -1°C° 0 mm 1 m/s 742 mmHg 87%
    09:00 -2°C° 0 mm 2 m/s 742 mmHg 82%
    10:00 -2°C° 0 mm 2 m/s 743 mmHg 77%
    11:00 -1°C° 0 mm 2 m/s 743 mmHg 73%
    12:00 -1°C° 0 mm 3 m/s 743 mmHg 70%
    13:00 0°C° 0 mm 3 m/s 743 mmHg 66%
    14:00 0°C° 0 mm 3 m/s 743 mmHg 68%
    15:00 -1°C° 0 mm 2 m/s 743 mmHg 69%
    16:00 -2°C° 0 mm 2 m/s 743 mmHg 71%
    17:00 -2°C° 0 mm 2 m/s 744 mmHg 72%
    18:00 -1°C° 0 mm 1 m/s 745 mmHg 73%
    19:00 -1°C° 0 mm 1 m/s 745 mmHg 74%
    20:00 -1°C° 0 mm 1 m/s 746 mmHg 75%
    21:00 -1°C° 0 mm 1 m/s 746 mmHg 75%
    22:00 -2°C° 0 mm 1 m/s 747 mmHg 75%
    23:00 -2°C° 0 mm 1 m/s 747 mmHg 75%

    21 Ianuarie, Luni

    Timp Temperatura Precipitaţii Vânt Presiune Umiditate
    00:00 -2°C° 0 mm 1 m/s 748 mmHg 76%
    01:00 -2°C° 0 mm 1 m/s 748 mmHg 76%
    02:00 -2°C° 0 mm 1 m/s 748 mmHg 76%
    03:00 -2°C° 0 mm 1 m/s 748 mmHg 76%
    04:00 -3°C° 0 mm 1 m/s 749 mmHg 76%
    05:00 -4°C° 0 mm 0 m/s 749 mmHg 76%
    06:00 -4°C° 0 mm 0 m/s 749 mmHg 77%
    07:00 -4°C° 0 mm 0 m/s 750 mmHg 77%
    08:00 -2°C° 0 mm 1 m/s 750 mmHg 74%
    09:00 -2°C° 0 mm 1 m/s 751 mmHg 70%
    10:00 -1°C° 0 mm 1 m/s 751 mmHg 66%
    11:00 0°C° 0 mm 1 m/s 751 mmHg 63%
    12:00 -2°C° 0 mm 2 m/s 751 mmHg 59%
    13:00 -1°C° 0 mm 2 m/s 751 mmHg 56%
    14:00 -2°C° 0 mm 2 m/s 751 mmHg 59%
    15:00 -2°C° 0 mm 2 m/s 750 mmHg 61%
    16:00 -3°C° 0 mm 2 m/s 750 mmHg 64%
    17:00 -3°C° 0 mm 2 m/s 750 mmHg 66%
    18:00 -4°C° 0 mm 2 m/s 750 mmHg 68%
    19:00 -4°C° 0 mm 2 m/s 750 mmHg 69%
    20:00 -4°C° 0 mm 2 m/s 750 mmHg 70%
    21:00 -5°C° 0 mm 2 m/s 750 mmHg 70%
    22:00 -5°C° 0 mm 2 m/s 750 mmHg 70%
    23:00 -5°C° 0 mm 2 m/s 749 mmHg 71%
    Arată mai mult